SB KEPS @ AMSAT $ORB14163.N 2Line Orbital Elements 14163.AMSAT
HR AMSAT ORBITAL ELEMENTS FOR AMATEUR SATELLITES IN NASA FORMAT FROM WA5QGD FORT WORTH,TX June 12, 2014 BID: ORB14163.N
DECODE 2-LINE ELSETS WITH THE FOLLOWING KEY: 1 AAAAAU 00 0 0 BBBBB.BBBBBBBB .CCCCCCCC 00000-0 00000-0 0 DDDZ 2 AAAAA EEE.EEEE FFF.FFFF GGGGGGG HHH.HHHH III.IIII JJ.JJJJJJJJKKKKKZ KEY: A-CATALOGNUM B-EPOCHTIME C-DECAY D-ELSETNUM E-INCLINATION F-RAAN G-ECCENTRICITY H-ARGPERIGEE I-MNANOM J-MNMOTION K-ORBITNUM Z-CHECKSUM
TO ALL RADIO AMATEURS BT
AO-07 1 07530U 74089B 14162.86886368 -.00000044 00000-0 -50309-5 0 9879 2 07530 101.4707 144.8755 0011530 307.0687 116.5711 12.53605308810859 FO-29 1 24278U 96046B 14163.11546073 -.00000020 00000-0 18062-4 0 3932 2 24278 098.5117 177.6735 0349526 310.9071 087.3775 13.53024580879981 SO-33 1 25509U 98061B 14162.41697137 .00000174 00000-0 24051-4 0 7690 2 25509 031.4297 193.0788 0349435 063.8228 058.0361 14.29548251816326 RS-22 1 27939U 03042A 14163.31603288 .00000668 00000-0 13235-3 0 5707 2 27939 097.8088 337.7028 0014228 120.2127 240.0480 14.65206366572016 VO-52 1 28650U 05017B 14162.63017732 .00001271 00000-0 15243-3 0 7624 2 28650 097.5595 167.8745 0025699 172.7795 187.3796 14.85480172492400 HO-68 1 36122U 09072B 14163.16965161 -.00000043 00000-0 00000 0 0 6727 2 36122 100.2488 215.2001 0007187 248.2659 111.7693 13.16316113215775 AO-73 1 39444U 13066AE 14162.67341696 .00001091 00000-0 15284-3 0 1655 2 39444 097.7697 233.5100 0060976 261.6417 097.7924 14.78289775 28657 UO-11 1 14781U 84021B 14162.22383846 .00000516 00000-0 72283-4 0 5158 2 14781 097.8528 222.4674 0008799 190.7608 169.3418 14.81601302627084 AO-16 1 20439U 90005D 14161.81278999 .00000101 00000-0 53421-4 0 428 2 20439 098.5068 099.2687 0011209 172.3912 241.3409 14.32357688273579 LO-19 1 20442U 90005G 14162.41781118 .00000081 00000-0 45549-4 0 9801 2 20442 098.4774 100.5346 0012421 160.5699 199.5961 14.32560114273850 AO-27 1 22825U 93061C 14163.09542650 .00000099 00000-0 55763-4 0 6887 2 22825 098.6614 109.2030 0007437 318.1837 169.9883 14.29721203 80050 IO-26 1 22826U 93061D 14162.08735469 .00000087 00000-0 51013-4 0 4449 2 22826 098.6556 108.4207 0007940 312.8158 047.2356 14.30021307 80041 GO-32 1 25397U 98043D 14162.81834666 .00000036 00000-0 34113-4 0 3670 2 25397 098.4678 121.0064 0000980 032.8541 025.0258 14.23445380827108 NO-44 1 26931U 01043C 14162.79987984 .00000069 00000-0 58577-4 0 6239 2 26931 067.0526 052.3492 0006347 283.0891 076.9501 14.30119276662832 SO-50 1 27607U 02058C 14163.19910210 .00000439 00000-0 86789-4 0 4178 2 27607 064.5563 247.5524 0046979 012.2523 347.9709 14.73773599616740 CO-55 1 27844U 03031E 14162.51241837 .00000171 00000-0 97900-4 0 9445 2 27844 098.6975 171.3664 0008437 293.5831 187.0963 14.21508760567772 CO-57 1 27848U 03031J 14162.51650558 .00000147 00000-0 87487-4 0 8859 2 27848 098.7067 171.0775 0008368 300.8432 182.4310 14.21195449567693 AO-51 1 28375U 04025K 14162.86112185 .00000229 00000-0 80904-4 0 8618 2 28375 098.2498 109.9512 0083055 009.4416 350.8312 14.41387938523133 CP3 1 31129U 07012N 14162.46431406 .00000905 00000-0 20834-3 0 7686 2 31129 097.9330 140.7356 0098977 029.6591 085.0251 14.54685628379208 CO-65 1 32785U 08021C 14162.45037384 .00001026 00000-0 12534-3 0 9722 2 32785 097.6999 213.9359 0013684 201.4238 286.5160 14.85292012331177 PRISM 1 33493U 09002B 14163.30934918 .00002875 00000-0 30795-3 0 18 2 33493 098.2487 338.7508 0019150 099.4689 260.8779 14.89414432291457 SOHLA-1 1 33496U 09002E 14163.16467714 .00000416 00000-0 76397-4 0 3741 2 33496 098.1698 284.0829 0005233 251.8217 229.3979 14.70809481288775 TISAT-1 1 36799U 10035E 14163.30170618 .00001942 00000-0 23031-3 0 2625 2 36799 098.0173 255.2597 0013133 344.7765 015.3077 14.85649604211998 STUDSAT 1 36801U 10035G 14162.17761666 .00007554 00000-0 66788-3 0 8371 2 36801 098.0375 262.0508 0007383 317.3037 074.2958 14.96603370212234 ALMASAT-1 1 38078U 12006B 14162.30394891 .00040840 00000-0 86694-3 0 506 2 38078 069.4700 073.4914 0594262 039.6012 091.0747 14.49557526120785 XATCOBEO 1 38082U 12006F 14163.36520049 .00205238 14695-4 11765-2 0 3045 2 38082 069.4402 329.7784 0206036 341.6702 092.2793 15.54464019123645 CUBEBUG-1 1 39153U 13018D 14162.94050765 .00001013 00000-0 14835-3 0 2008 2 39153 098.0434 243.2540 0018520 011.6555 348.5088 14.77708059 60785 ESTCUBE-1 1 39161U 13021C 14163.25359334 .00000832 00000-0 14687-3 0 1855 2 39161 098.0967 244.1870 0011442 057.2155 303.0163 14.69992016 58875 MET-2/21 1 22782U 93055A 14162.71505028 .00000012 00000-0 -21562-5 0 799 2 22782 082.5478 177.6469 0020809 280.4076 126.9422 13.83737517 49366 OKEAN-4 1 23317U 94066A 14162.83659168 .00000850 00000-0 95152-4 0 5570 2 23317 082.5394 072.9514 0022265 115.8100 356.1032 14.85526515 62314 NOAA-14 1 23455U 94089A 14162.42181233 -.00000002 00000-0 21620-4 0 7791 2 23455 098.7784 245.9604 0010229 061.2793 051.5023 14.13975343 3139 NOAA-15 1 25338U 98030A 14162.50884544 .00000112 00000-0 66338-4 0 2147 2 25338 098.7517 156.3787 0011250 159.3656 310.7805 14.25428909836039 RESURS 1 25394U 98043A 14162.95062664 -.00000001 00000-0 17488-4 0 6776 2 25394 098.4120 127.5424 0000128 244.0186 152.3950 14.24395031827576 FENGYUN1 1 25730U 99025A 14162.53317744 .00000708 00000-0 41050-3 0 1664 2 25730 098.9124 123.6591 0026335 124.1335 345.5978 14.11897985776720 OKEAN-0 1 25860U 99039A 14161.99833439 .00000453 00000-0 74425-4 0 2735 2 25860 098.0419 125.8998 0002015 096.6681 306.7616 14.75274769801246 NOAA-16 1 26536U 00055A 14162.44062453 .00000089 00000-0 72038-4 0 7061 2 26536 098.9908 222.7802 0010704 196.6294 284.7300 14.13031021707306 NOAA-17 1 27453U 02032A 14162.43442679 .00000010 00000-0 21968-4 0 6089 2 27453 098.3133 162.4500 0011811 184.9756 175.1309 14.24750370621862 NOAA-18 1 28654U 05018A 14162.51255453 .00000186 00000-0 12675-3 0 1062 2 28654 099.1471 141.8981 0013142 280.3896 187.6878 14.12024482466769 NOAA-19 1 33591U 09005A 14162.46950019 .00000225 00000-0 14775-3 0 2611 2 33591 098.9441 107.5238 0014978 133.0593 334.5833 14.11721619275182 HUBBLE 1 20580U 90037B 14163.16633530 .00001902 00000-0 11745-3 0 327 2 20580 028.4706 070.1356 0002834 231.2688 279.6082 15.05438903123966 ISS 1 25544U 98067A 14163.41034720 .00007401 00000-0 13434-3 0 4755 2 25544 051.6463 123.2606 0004463 095.0916 048.4133 15.50671879890586 CO-58 1 28895U 05043F 14162.46082700 .00000498 00000-0 10822-3 0 7901 2 28895 097.8354 004.6264 0017876 033.7645 326.4692 14.61890685459412 FALCON 1 30776U 07006E 14162.11629817 .00005340 00000-0 27215-3 0 8862 2 30776 035.4279 151.3336 0003050 243.1970 182.9097 15.16247197399810 MAST 1 31126U 07012K 14162.50682741 .00000557 00000-0 13162-3 0 668 2 31126 097.9134 143.6955 0092179 013.0382 101.3785 14.55279074379565 CAPE1 1 31130U 07012P 14162.43247956 .00000820 00000-0 19058-3 0 720 2 31130 097.9343 140.2710 0099570 031.0928 329.6110 14.54439549378977 COMPASS 1 32787U 08021E 14163.12256586 .00002956 00000-0 32822-3 0 9541 2 32787 097.7019 216.7986 0013916 191.6726 168.4170 14.87889498331430 AAUSAT2 1 32788U 08021F 14162.79305595 .00002659 00000-0 29078-3 0 9403 2 32788 097.7029 217.4589 0013431 190.7318 169.3615 14.88596334331448 DO-64 1 32789U 08021G 14162.73803949 .00005754 00000-0 55311-3 0 9806 2 32789 097.7221 223.8534 0012838 175.6366 333.0230 14.93344641331686 CO-66 1 32791U 08021J 14162.13210872 .00001545 00000-0 18009-3 0 9368 2 32791 097.7017 214.6152 0014485 198.4366 161.6327 14.86554778331159 RS-30 1 32953U 08025A 14163.24050391 .00000010 00000-0 00000 0 0 43 2 32953 082.5026 204.2861 0019419 162.9668 197.2070 12.43047977274645 METEOR-M 1 35865U 09049A 14162.24421644 -.00000042 00000-0 22577-6 0 6162 2 35865 098.5499 209.8371 0003200 102.6050 257.5490 14.21923070245497 RS-38 1 35869U 09049E 14163.06038940 .00000031 00000-0 33041-4 0 5386 2 35869 098.5433 210.4294 0005853 109.9368 277.0249 14.22212545245644 JUGNU 1 37839U 11058B 14160.76289549 .00000399 00000-0 70997-4 0 6339 2 37839 019.9621 299.9366 0019102 263.5105 204.7341 14.12311742137502 SRMSAT 1 37841U 11058D 14162.51081896 .00000344 00000-0 44008-4 0 6370 2 37841 019.9723 308.5498 0011689 222.5326 210.5404 14.10353218137555 RAX-2 1 37853U 11061D 14163.03300255 .00008498 00000-0 58137-3 0 8296 2 37853 101.7138 190.2153 0217040 071.7489 320.2376 14.89378512141894 AUBIESAT 1 37854U 11061E 14163.02429878 .00009125 00000-0 60520-3 0 8117 2 37854 101.7177 192.0438 0214869 069.0396 323.7045 14.90692313141944 HRBE 1 37855U 11061F 14162.62326670 .00007821 00000-0 52645-3 0 8186 2 37855 101.7180 190.8221 0216890 071.4182 043.5877 14.90004365141855 RS-39 1 38051U 11062C 14163.12766451 .00058941 00000-0 71332-3 0 6234 2 38051 051.6261 248.2514 0001523 209.4113 222.6845 15.60100610133328 E-STAR 1 38079U 12006C 14163.08723887 .00087088 49269-5 10122-2 0 8807 2 38079 069.4524 005.1142 0371818 002.2814 130.1402 15.08336645122699 GOLIAT 1 38085U 12006J 14162.69834160 .00082860 46916-5 10231-2 0 1103 2 38085 069.4566 013.0915 0395162 006.3878 354.2101 15.02358920122454 HORYU-2 1 38340U 12025D 14162.85640017 .00001706 00000-0 27652-3 0 8777 2 38340 098.2600 119.9630 0011731 187.3994 172.7086 14.72523254111018 RS-40 1 38735U 12041C 14162.48762950 .00000024 00000-0 10000-3 0 5928 2 38735 082.4761 291.0933 0015907 266.8437 093.0824 12.42559865 84871 PROITERES 1 38756U 12047B 14163.17130819 .00000596 00000-0 96559-4 0 9143 2 38756 098.2287 251.3828 0013057 045.4851 314.7421 14.74965658 94447 BEESAT-3 1 39134U 13015E 14162.47063024 .00004802 00000-0 34430-3 0 6099 2 39134 064.8701 156.6415 0027441 309.1846 050.6882 15.05223849 62809 BEESAT-2 1 39136U 13015G 14163.32986024 .00004390 00000-0 32083-3 0 5958 2 39136 064.8703 154.3848 0027709 309.2987 050.5716 15.04629644 62922 LO-75 1 39382U 13064C 14162.31762867 .00067119 00000-0 14235-2 0 2661 2 39382 040.4948 130.0630 0018205 201.1924 158.8197 15.43929068 31150 ZACUBE-1 1 39417U 13066B 14162.95865159 .00001282 00000-0 17916-3 0 3211 2 39417 097.7765 233.7603 0060653 260.3519 099.0893 14.78091426 29929 TRITON-1 1 39427U 13066M 14163.13374891 .00000685 00000-0 12331-3 0 1750 2 39427 097.7634 229.8496 0117193 266.8557 091.9299 14.65379523 29650 DELFIN3XT 1 39428U 13066N 14162.63928296 .00001121 00000-0 20217-3 0 1779 2 39428 097.7630 228.6419 0127586 270.0803 088.5816 14.63274289 29521 GOMX-1 1 39430U 13066Q 14163.22436952 .00000654 00000-0 13364-3 0 5534 2 39430 097.7581 227.2426 0155276 273.4974 084.8495 14.56817824 29493 MO-76 1 39436U 13066W 14162.99713164 .00008525 00000-0 88400-3 0 2351 2 39436 097.7786 236.6934 0024559 264.5653 095.3073 14.90013327 30101 LO-74 1 39440U 13066AA 14162.42581266 .00000793 00000-0 12476-3 0 1729 2 39440 097.7706 231.6334 0082716 263.9984 095.1814 14.73036798 29732 PUCPSAT-1 1 39442U 13066AC 14162.51142103 .00001527 00000-0 17909-3 0 1704 2 39442 097.7811 235.8092 0033275 264.8221 094.9275 14.86056612 28781 LO-78 1 39569U 98067EN 14163.28031375 .00213303 00000-0 11587-2 0 3187 2 39569 051.6419 113.3483 0007380 058.2545 089.0904 15.78802091 16255 SHINAISAT 1 39572U 14009A 14163.17162932 .00047783 00000-0 40842-3 0 1426 2 39572 065.0053 060.3590 0016594 289.2434 070.6923 15.69022140 16326 OPUSAT 1 39575U 14009D 14162.86080062 .00207376 21782-4 79594-3 0 1748 2 39575 065.0036 056.8124 0013820 287.9411 072.0240 15.87074454 16369 TEIKYOSAT 1 39576U 14009E 14162.83381010 .00062974 00000-0 46547-3 0 1474 2 39576 065.0097 060.3907 0015686 301.9691 057.9934 15.72434854 16297 IFT-1 1 39577U 14009F 14162.85810945 .00117168 00000-0 62613-3 0 1569 2 39577 064.9998 058.3847 0014225 297.8643 062.1070 15.79652027 16339 CO-77 1 39578U 14009G 14137.79435183 .04930316 75580-5 46746-3 0 1855 2 39578 064.9698 141.4483 0010610 288.0688 072.6747 16.37966192 12465 STARS-II 1 39579U 14009H 14116.06110564 .20186783 77451-5 52661-3 0 1329 2 39579 064.9886 219.0071 0013010 293.8065 069.6132 16.44611049 9028 SPROUT 1 39770U 14029E 14162.80219711 .00000883 00000-0 11621-3 0 315 2 39770 097.8722 260.0395 0009544 338.4836 021.6023 14.82588774 2746 /EX
participants (1)
-
Ray Hoad